Regional Weather Roundup
Issued by NWS

Home | Current Version | Previous Version | Graphics & Text | Print | Product List | Glossary On
Versions: 1 2 3 4 5 6 7 8 9 10 11 12 13 14 15 16 17 18 19 20 21 22 23 24 25 26 27 28 29 30 31 32 33 34 35 36 37 38 39 40 41 42 43 44 45 46 47 48 49 50
997
ASUS43 KFSD 250210
RWRSD

WEATHER ROUNDUP FOR SOUTH DAKOTA
NATIONAL WEATHER SERVICE SIOUX FALLS SD
800 PM CST FRI FEB 24 2017

NOTE: "FAIR" INDICATES FEW OR NO CLOUDS BELOW 12,000 FEET WITH NO
SIGNIFICANT WEATHER AND/OR OBSTRUCTIONS TO VISIBILITY.


SDZ001>005-009-010-012>017-250300-
NORTHWEST AND NORTH CENTRAL SOUTH DAKOTA

CITY           SKY/WX    TMP DP  RH WIND       PRES   REMARKS
BUFFALO          N/A     28  11  48 S5        29.97F WCI  23
FAITH            N/A     22  15  75 E6        30.07S WCI  14
MOBRIDGE       CLOUDY    25  14  63 NE8       30.08F WCI  16
$$

SDZ012>016-024>037-041>051-057-063-072>074-250300-
SOUTHWEST AND SOUTH CENTRAL SOUTH DAKOTA

CITY           SKY/WX    TMP DP  RH WIND       PRES   REMARKS
RAPID CTY ARPT CLOUDY    19  14  81 S6        30.05F WCI  11
PIERRE         CLEAR     20  12  71 W7        30.12R WCI  11
CUSTER         CLOUDY    13   9  84 W5        29.92S WCI   5
ELLSWORTH AFB  CLOUDY    20  16  83 SW7       30.04S WCI  11
PHILIP         CLOUDY    20  12  71 E3        30.10F
PINE RIDGE     CLOUDY    12   9  87 SW3       30.07S
SPEARFISH      CLOUDY    21  18  86 SW5       30.01S WCI  15
WINNER         FAIR      20  12  71 NW6       30.11S WCI  12
$$

SDZ004>011-016>023-039-040-250300-
NORTHEAST SOUTH DAKOTA

CITY           SKY/WX    TMP DP  RH WIND       PRES   REMARKS
ABERDEEN       CLEAR     21  14  74 NW12      30.12R WCI   9
WATERTOWN      CLOUDY    19  13  77 N16       30.02R WCI   4
BROOKINGS      FLURRIES  21  14  74 N21G28    30.00R WCI   5
SISSETON         N/A     20  16  84 N15       30.06S WCI   6
$$

SDZ017-020-022-023-036>040-048>070-250300-
SOUTHEAST SOUTH DAKOTA

CITY           SKY/WX    TMP DP  RH WIND       PRES   REMARKS
SIOUX FALLS    MOCLDY    23  15  71 N21       30.01R WCI   8
HURON          CLEAR     23  16  74 N16       30.10R WCI  10
CHAMBERLAIN    CLEAR     28  15  56 N10       30.11R WCI  19
MITCHELL       CLOUDY    26  17  68 N13       30.09R WCI  15
YANKTON        CLOUDY    21  10  63 NW13      30.05R WCI   9
$$

ABBREVIATIONS USED IN REMARKS
   TC - TEMPERATURE IN CELSIUS
  WCI - WIND CHILL INDEX
   HX - HEAT INDEX
  VSB - VISIBILITY





USA.gov is the U.S. government's official web portal to all federal, state and local government web resources and services.